Montpelier, VT

10:42 AM EST on November 21, 2019 (GMT -0500)
Knapp State

Weather History for KMPV - September, 2019

Change the Weather History Date:

Thursday, September 12, 2019

  Actual Average Record
Temperature  
Mean Temperature 52 °F 59 °F  
Max Temperature 63 °F 70 °F 85 °F (1982)
Min Temperature 42 °F 48 °F 33 °F (1965)
Degree Days  
Heating Degree Days 12 7  
Month to date heating degree days 84 63  
Since 1 July heating degree days 152 171  
Cooling Degree Days 0 1  
Month to date cooling degree days 5 12  
Year to date cooling degree days 216 256  
Growing Degree Days 2 (Base 50)    
Moisture  
Dew Point 48 °F    
Average Humidity 79    
Maximum Humidity 100    
Minimum Humidity 52    
Precipitation  
Precipitation 0.00 in 0.09 in 3.75 in (1960)
Month to date precipitation 1.42 1.10  
Year to date precipitation 36.22 25.90  
Sea Level Pressure  
Sea Level Pressure 30.25 in    
Wind  
Wind Speed 5 mph ()    
Max Wind Speed 15 mph    
Max Gust Speed 19 mph    
Visibility 10.0 miles    
Events      
T = Trace of Precipitation, MM = Missing Value Source: Averaged Metar Reports

Daily Weather History Graph

Daily Weather History Graph

Search for Another Location

Airport or City:

Astronomy

Sep. 12, 2019 Rise Set
Actual Time 6:25 AM EDT 7:06 PM EDT
Civil Twilight 5:56 AM EDT 7:35 PM EDT
Nautical Twilight 5:21 AM EDT 8:10 PM EDT
Astronomical Twilight 4:45 AM EDT 8:46 PM EDT
Moon 6:54 PM EDT (9/12) 4:36 AM EDT (9/12)
Length of Visible Light 13h 39m
Length of Day
12h 41m
Waxing Gibbous, 98% of the Moon is Illuminated
Sep 12
Waxing Gibbous
Sep 14
Full
Sep 21
Last Quarter
Sep 28
New
Oct 5
First Quarter

Hourly Weather History & Observations

Time (EDT) Temp. Dew Point Humidity Pressure Visibility Wind Dir Wind Speed Gust Speed Precip Events Conditions
12:51 AM 59.0 °F 55.0 °F 87% 30.12 in 10.0 mi NNE 5.8 mph - N/A   Overcast
1:32 AM 57.9 °F 54.0 °F 87% 30.14 in 10.0 mi NE 4.6 mph - N/A   Overcast
2:51 AM 57.0 °F 53.1 °F 87% 30.12 in 10.0 mi Calm Calm - N/A   Overcast
3:51 AM 55.9 °F 53.1 °F 90% 30.14 in 10.0 mi North 4.6 mph - N/A   Overcast
4:03 AM 55.9 °F 53.1 °F 90% 30.14 in 10.0 mi North 3.5 mph - N/A   Overcast
4:35 AM 55.0 °F 52.0 °F 89% 30.15 in 10.0 mi North 4.6 mph - N/A   Overcast
4:51 AM 55.0 °F 51.1 °F 86% 30.16 in 10.0 mi NE 6.9 mph - N/A   Overcast
5:51 AM 54.0 °F 50.0 °F 86% 30.16 in 10.0 mi North 4.6 mph - N/A   Overcast
6:24 AM 53.1 °F 50.0 °F 89% 30.18 in 10.0 mi NNW 4.6 mph - N/A   Overcast
6:51 AM 53.1 °F 50.0 °F 89% 30.19 in 10.0 mi NNW 6.9 mph - N/A   Overcast
7:44 AM 53.1 °F 48.9 °F 86% 30.20 in 10.0 mi NNW 6.9 mph - N/A   Overcast
7:51 AM 53.1 °F 48.9 °F 86% 30.21 in 10.0 mi NNW 4.6 mph - N/A   Overcast
8:51 AM 53.1 °F 48.0 °F 83% 30.24 in 10.0 mi North 5.8 mph - N/A   Overcast
9:04 AM 53.1 °F 48.0 °F 83% 30.23 in 10.0 mi NNW 6.9 mph - N/A   Overcast
9:51 AM 54.0 °F 48.0 °F 80% 30.25 in 10.0 mi North 6.9 mph - N/A   Overcast
10:51 AM 55.9 °F 48.9 °F 77% 30.26 in 10.0 mi North 5.8 mph - N/A   Clear
11:51 AM 57.0 °F 48.0 °F 72% 30.26 in 10.0 mi NNW 3.5 mph - N/A   Overcast
11:58 AM 59.0 °F 48.0 °F 67% 30.25 in 10.0 mi North 9.2 mph - N/A   Overcast
12:51 PM 60.1 °F 46.0 °F 60% 30.26 in 10.0 mi North 11.5 mph 17.3 mph N/A   Overcast
1:51 PM 60.1 °F 45.0 °F 57% 30.26 in 10.0 mi NE 12.7 mph - N/A   Overcast
2:51 PM 62.1 °F 46.0 °F 56% 30.26 in 10.0 mi Variable 6.9 mph 18.4 mph N/A   Mostly Cloudy
3:51 PM 61.0 °F 44.1 °F 54% 30.27 in 10.0 mi North 9.2 mph - N/A   Mostly Cloudy
4:51 PM 63.0 °F 45.0 °F 52% 30.29 in 10.0 mi NE 11.5 mph - N/A   Mostly Cloudy
5:51 PM 61.0 °F 45.0 °F 56% 30.32 in 10.0 mi North 9.2 mph - N/A   Scattered Clouds
6:51 PM 57.0 °F 44.1 °F 62% 30.34 in 10.0 mi North 4.6 mph - N/A   Clear
7:51 PM 52.0 °F 45.0 °F 77% 30.37 in 10.0 mi Calm Calm - N/A   Clear
8:51 PM 46.9 °F 44.1 °F 90% 30.39 in 10.0 mi Calm Calm - N/A   Clear
9:51 PM 46.9 °F 44.1 °F 90% 30.41 in 10.0 mi Calm Calm - N/A   Clear
10:51 PM 45.0 °F 43.0 °F 93% 30.42 in 10.0 mi Calm Calm - N/A   Clear
11:51 PM 43.0 °F 42.1 °F 97% 30.43 in 10.0 mi Calm Calm - N/A   Clear